Year,Month,Day,Hour,Minute,Value (Times are PST for temperature in C)
2015,06,08,00,00,16.20
2015,06,08,00,01,16.20
2015,06,08,00,02,16.20
2015,06,08,00,03,16.20
2015,06,08,00,04,16.20
2015,06,08,00,05,16.20
2015,06,08,00,06,16.20
2015,06,08,00,07,16.20
2015,06,08,00,08,16.20
2015,06,08,00,09,16.20
2015,06,08,00,10,16.20
2015,06,08,00,11,16.20
2015,06,08,00,12,16.20
2015,06,08,00,13,16.20
2015,06,08,00,14,16.20
2015,06,08,00,15,16.20
2015,06,08,00,16,16.20
2015,06,08,00,17,16.20
2015,06,08,00,18,16.20
2015,06,08,00,19,16.20
2015,06,08,00,20,16.20
2015,06,08,00,21,16.20
2015,06,08,00,22,16.20
2015,06,08,00,23,16.30
2015,06,08,00,24,16.30
2015,06,08,00,25,16.30
2015,06,08,00,26,16.30
2015,06,08,00,27,16.30
2015,06,08,00,28,16.30
2015,06,08,00,29,16.20
2015,06,08,00,30,16.20
2015,06,08,00,31,16.20
2015,06,08,00,32,16.20
2015,06,08,00,33,16.20
2015,06,08,00,34,16.20
2015,06,08,00,35,16.20
2015,06,08,00,36,16.20
2015,06,08,00,37,16.20
2015,06,08,00,38,16.20
2015,06,08,00,39,16.20
2015,06,08,00,40,16.20
2015,06,08,00,41,16.10
2015,06,08,00,42,16.10
2015,06,08,00,43,16.10
2015,06,08,00,44,16.10
2015,06,08,00,45,16.00
2015,06,08,00,46,16.00
2015,06,08,00,47,16.00
2015,06,08,00,48,16.00
2015,06,08,00,49,15.90
2015,06,08,00,50,15.90
2015,06,08,00,51,15.90
2015,06,08,00,52,15.90
2015,06,08,00,53,15.90
2015,06,08,00,54,15.90
2015,06,08,00,55,15.80
2015,06,08,00,56,15.80
2015,06,08,00,57,15.80
2015,06,08,00,58,15.80
2015,06,08,00,59,15.80
2015,06,08,01,00,15.80
2015,06,08,01,01,15.80
2015,06,08,01,02,15.80
2015,06,08,01,03,15.80
2015,06,08,01,04,15.80
2015,06,08,01,05,15.80
2015,06,08,01,06,15.80
2015,06,08,01,07,15.80
2015,06,08,01,08,15.80
2015,06,08,01,09,15.80
2015,06,08,01,10,15.80
2015,06,08,01,11,15.80
2015,06,08,01,12,15.80
2015,06,08,01,13,15.80
2015,06,08,01,14,15.80
2015,06,08,01,15,15.80
2015,06,08,01,16,15.70
2015,06,08,01,17,15.70
2015,06,08,01,18,15.70
2015,06,08,01,19,15.70
2015,06,08,01,20,15.70
2015,06,08,01,21,15.80
2015,06,08,01,22,15.80
2015,06,08,01,23,15.80
2015,06,08,01,24,15.80
2015,06,08,01,25,15.80
2015,06,08,01,26,15.80
2015,06,08,01,27,15.70
2015,06,08,01,28,15.70
2015,06,08,01,29,15.70
2015,06,08,01,30,15.70
2015,06,08,01,31,15.70
2015,06,08,01,32,15.70
2015,06,08,01,33,15.70
2015,06,08,01,34,15.70
2015,06,08,01,35,15.70
2015,06,08,01,36,15.60
2015,06,08,01,37,15.60
2015,06,08,01,38,15.60
2015,06,08,01,39,15.60
2015,06,08,01,40,15.60
2015,06,08,01,41,15.50
2015,06,08,01,42,15.50
2015,06,08,01,43,15.50
2015,06,08,01,44,15.40
2015,06,08,01,45,15.40
2015,06,08,01,46,15.40
2015,06,08,01,47,15.40
2015,06,08,01,48,15.30
2015,06,08,01,49,15.30
2015,06,08,01,50,15.30
2015,06,08,01,51,15.20
2015,06,08,01,52,15.20
2015,06,08,01,53,15.20
2015,06,08,01,54,15.20
2015,06,08,01,55,15.10
2015,06,08,01,56,15.10
2015,06,08,01,57,15.00
2015,06,08,01,58,15.00
2015,06,08,01,59,15.00
2015,06,08,02,00,15.00
2015,06,08,02,01,15.00
2015,06,08,02,02,15.00
2015,06,08,02,03,15.00
2015,06,08,02,04,15.00
2015,06,08,02,05,15.00
2015,06,08,02,06,15.00
2015,06,08,02,07,15.00
2015,06,08,02,08,15.00
2015,06,08,02,09,15.00
2015,06,08,02,10,15.00
2015,06,08,02,11,15.00
2015,06,08,02,12,15.00
2015,06,08,02,13,15.00
2015,06,08,02,14,15.00
2015,06,08,02,15,15.00
2015,06,08,02,16,14.90
2015,06,08,02,17,14.90
2015,06,08,02,18,14.90
2015,06,08,02,19,14.80
2015,06,08,02,20,14.80
2015,06,08,02,21,14.80
2015,06,08,02,22,14.70
2015,06,08,02,23,14.70
2015,06,08,02,24,14.70
2015,06,08,02,25,14.60
2015,06,08,02,26,14.60
2015,06,08,02,27,14.60
2015,06,08,02,28,14.50
2015,06,08,02,29,14.50
2015,06,08,02,30,14.40
2015,06,08,02,31,14.40
2015,06,08,02,32,14.40
2015,06,08,02,33,14.30
2015,06,08,02,34,14.30
2015,06,08,02,35,14.30
2015,06,08,02,36,14.20
2015,06,08,02,37,14.20
2015,06,08,02,38,14.20
2015,06,08,02,39,14.20
2015,06,08,02,40,14.10
2015,06,08,02,41,14.10
2015,06,08,02,42,14.10
2015,06,08,02,43,14.10
2015,06,08,02,44,14.00
2015,06,08,02,45,14.00
2015,06,08,02,46,14.00
2015,06,08,02,47,13.90
2015,06,08,02,48,13.90
2015,06,08,02,49,13.90
2015,06,08,02,50,13.90
2015,06,08,02,51,13.90
2015,06,08,02,52,13.90
2015,06,08,02,53,13.80
2015,06,08,02,54,13.80
2015,06,08,02,55,13.80
2015,06,08,02,56,13.80
2015,06,08,02,57,13.80
2015,06,08,02,58,13.80
2015,06,08,02,59,13.80
2015,06,08,03,00,13.70
2015,06,08,03,01,13.70
2015,06,08,03,02,13.70
2015,06,08,03,03,13.70
2015,06,08,03,06,13.60
2015,06,08,03,07,13.60
2015,06,08,03,08,13.60
2015,06,08,03,09,13.60
2015,06,08,03,10,13.60
2015,06,08,03,11,13.60
2015,06,08,03,12,13.60
2015,06,08,03,13,13.50
2015,06,08,03,14,13.50
2015,06,08,03,15,13.50
2015,06,08,03,16,13.50
2015,06,08,03,17,13.50
2015,06,08,03,18,13.40
2015,06,08,03,19,13.40
2015,06,08,03,20,13.40
2015,06,08,03,21,13.40
2015,06,08,03,22,13.40
2015,06,08,03,23,13.40
2015,06,08,03,24,13.40
2015,06,08,03,25,13.40
2015,06,08,03,26,13.40
2015,06,08,03,27,13.40
2015,06,08,03,28,13.40
2015,06,08,03,29,13.30
2015,06,08,03,30,13.30
2015,06,08,03,31,13.30
2015,06,08,03,32,13.30
2015,06,08,03,33,13.30
2015,06,08,03,34,13.30
2015,06,08,03,35,13.30
2015,06,08,03,36,13.30
2015,06,08,03,37,13.30
2015,06,08,03,38,13.30
2015,06,08,03,39,13.20
2015,06,08,03,40,13.20
2015,06,08,03,41,13.20
2015,06,08,03,42,13.20
2015,06,08,03,43,13.20
2015,06,08,03,44,13.20
2015,06,08,03,45,13.20
2015,06,08,03,46,13.20
2015,06,08,03,47,13.20
2015,06,08,03,48,13.20
2015,06,08,03,49,13.20
2015,06,08,03,50,13.10
2015,06,08,03,51,13.10
2015,06,08,03,52,13.10
2015,06,08,03,53,13.10
2015,06,08,03,54,13.10
2015,06,08,03,55,13.10
2015,06,08,03,56,13.10
2015,06,08,03,57,13.10
2015,06,08,03,58,13.10
2015,06,08,03,59,13.10
2015,06,08,04,00,13.10
2015,06,08,04,01,13.10
2015,06,08,04,02,13.10
2015,06,08,04,03,13.10
2015,06,08,04,04,13.10
2015,06,08,04,05,13.10
2015,06,08,04,06,13.00
2015,06,08,04,07,13.00
2015,06,08,04,08,13.10
2015,06,08,04,09,13.00
2015,06,08,04,10,13.00
2015,06,08,04,11,13.00
2015,06,08,04,12,13.00
2015,06,08,04,13,13.00
2015,06,08,04,14,13.00
2015,06,08,04,15,13.00
2015,06,08,04,16,13.00
2015,06,08,04,17,13.00
2015,06,08,04,18,13.00
2015,06,08,04,19,13.00
2015,06,08,04,20,13.00
2015,06,08,04,21,13.00
2015,06,08,04,22,13.00
2015,06,08,04,23,13.00
2015,06,08,04,24,13.00
2015,06,08,04,25,13.00
2015,06,08,04,26,12.90
2015,06,08,04,27,12.90
2015,06,08,04,28,12.90
2015,06,08,04,29,12.90
2015,06,08,04,30,12.90
2015,06,08,04,31,12.90
2015,06,08,04,32,12.90
2015,06,08,04,33,12.90
2015,06,08,04,34,12.90
2015,06,08,04,35,12.90
2015,06,08,04,36,12.90
2015,06,08,04,37,12.90
2015,06,08,04,38,12.90
2015,06,08,04,39,12.90
2015,06,08,04,40,12.90
2015,06,08,04,41,12.90
2015,06,08,04,42,12.90
2015,06,08,04,43,12.90
2015,06,08,04,44,12.90
2015,06,08,04,45,12.90
2015,06,08,04,46,12.90
2015,06,08,04,47,12.90
2015,06,08,04,48,12.90
2015,06,08,04,49,12.90
2015,06,08,04,50,13.00
2015,06,08,04,51,13.00
2015,06,08,04,52,13.00
2015,06,08,04,53,12.90
2015,06,08,04,54,12.90
2015,06,08,04,55,12.90
2015,06,08,04,56,12.90
2015,06,08,04,57,12.90
2015,06,08,04,58,12.90
2015,06,08,04,59,12.90
2015,06,08,05,00,12.90
2015,06,08,05,01,12.90
2015,06,08,05,02,12.90
2015,06,08,05,03,12.90
2015,06,08,05,04,12.90
2015,06,08,05,05,12.90
2015,06,08,05,06,12.80
2015,06,08,05,07,12.80
2015,06,08,05,08,12.80
2015,06,08,05,09,12.80
2015,06,08,05,10,12.80
2015,06,08,05,11,12.80
2015,06,08,05,12,12.80
2015,06,08,05,13,12.80
2015,06,08,05,14,12.70
2015,06,08,05,15,12.70
2015,06,08,05,16,12.70
2015,06,08,05,17,12.70
2015,06,08,05,18,12.70
2015,06,08,05,19,12.70
2015,06,08,05,20,12.70
2015,06,08,05,21,12.70
2015,06,08,05,22,12.70
2015,06,08,05,23,12.70
2015,06,08,05,24,12.70
2015,06,08,05,25,12.60
2015,06,08,05,26,12.60
2015,06,08,05,27,12.60
2015,06,08,05,28,12.60
2015,06,08,05,29,12.60
2015,06,08,05,30,12.60
2015,06,08,05,31,12.60
2015,06,08,05,32,12.60
2015,06,08,05,33,12.60
2015,06,08,05,34,12.60
2015,06,08,05,35,12.70
2015,06,08,05,36,12.70
2015,06,08,05,37,12.70
2015,06,08,05,38,12.70
2015,06,08,05,39,12.70
2015,06,08,05,40,12.80
2015,06,08,05,41,12.80
2015,06,08,05,42,12.80
2015,06,08,05,43,12.80
2015,06,08,05,44,12.80
2015,06,08,05,45,12.80
2015,06,08,05,46,12.80
2015,06,08,05,47,12.80
2015,06,08,05,48,12.80
2015,06,08,05,49,12.80
2015,06,08,05,50,12.80
2015,06,08,05,51,12.90
2015,06,08,05,52,12.80
2015,06,08,05,53,12.90
2015,06,08,05,54,12.90
2015,06,08,05,55,12.90
2015,06,08,05,56,13.00
2015,06,08,05,57,13.00
2015,06,08,05,58,13.00
2015,06,08,05,59,13.00
2015,06,08,06,00,13.00
2015,06,08,06,01,13.10
2015,06,08,06,02,13.10
2015,06,08,06,03,13.10
2015,06,08,06,04,13.20
2015,06,08,06,05,13.20
2015,06,08,06,06,13.20
2015,06,08,06,07,13.20
2015,06,08,06,08,13.20
2015,06,08,06,09,13.20
2015,06,08,06,10,13.20
2015,06,08,06,11,13.30
2015,06,08,06,12,13.30
2015,06,08,06,13,13.30
2015,06,08,06,14,13.30
2015,06,08,06,15,13.30
2015,06,08,06,16,13.30
2015,06,08,06,17,13.30
2015,06,08,06,18,13.30
2015,06,08,06,19,13.40
2015,06,08,06,20,13.40
2015,06,08,06,21,13.40
2015,06,08,06,22,13.40
2015,06,08,06,23,13.40
2015,06,08,06,24,13.50
2015,06,08,06,25,13.50
2015,06,08,06,26,13.50
2015,06,08,06,27,13.50
2015,06,08,06,28,13.60
2015,06,08,06,29,13.60
2015,06,08,06,30,13.60
2015,06,08,06,31,13.60
2015,06,08,06,32,13.70
2015,06,08,06,33,13.70
2015,06,08,06,34,13.70
2015,06,08,06,35,13.70
2015,06,08,06,36,13.70
2015,06,08,06,37,13.80
2015,06,08,06,38,13.80
2015,06,08,06,39,13.80
2015,06,08,06,40,13.80
2015,06,08,06,41,13.90
2015,06,08,06,42,13.90
2015,06,08,06,43,14.00
2015,06,08,06,44,14.00
2015,06,08,06,45,14.10
2015,06,08,06,46,14.20
2015,06,08,06,47,14.20
2015,06,08,06,48,14.30
2015,06,08,06,49,14.30
2015,06,08,06,50,14.40
2015,06,08,06,51,14.50
2015,06,08,06,52,14.70
2015,06,08,06,53,14.80
2015,06,08,06,54,15.00
2015,06,08,06,55,15.00
2015,06,08,06,56,15.00
2015,06,08,06,57,15.00
2015,06,08,06,58,15.10
2015,06,08,06,59,15.30
2015,06,08,07,00,15.50
2015,06,08,07,01,15.70
2015,06,08,07,02,15.80
2015,06,08,07,03,15.90
2015,06,08,07,04,16.00
2015,06,08,07,05,16.10
2015,06,08,07,06,16.20
2015,06,08,07,07,16.30
2015,06,08,07,08,16.40
2015,06,08,07,09,16.50
2015,06,08,07,10,16.70
2015,06,08,07,11,16.90
2015,06,08,07,12,17.00
2015,06,08,07,13,17.20
2015,06,08,07,14,17.30
2015,06,08,07,15,17.40
2015,06,08,07,16,17.60
2015,06,08,07,17,17.80
2015,06,08,07,18,17.90
2015,06,08,07,19,18.00
2015,06,08,07,20,18.10
2015,06,08,07,21,18.20
2015,06,08,07,22,18.30
2015,06,08,07,23,18.40
2015,06,08,07,24,18.50
2015,06,08,07,25,18.60
2015,06,08,07,26,18.60
2015,06,08,07,27,18.70
2015,06,08,07,28,18.80
2015,06,08,07,29,18.90
2015,06,08,07,30,18.90
2015,06,08,07,31,19.00
2015,06,08,07,32,19.10
2015,06,08,07,33,19.10
2015,06,08,07,34,19.20
2015,06,08,07,35,19.20
2015,06,08,07,36,19.30
2015,06,08,07,37,19.30
2015,06,08,07,38,19.40
2015,06,08,07,39,19.40
2015,06,08,07,40,19.50
2015,06,08,07,41,19.50
2015,06,08,07,42,19.60
2015,06,08,07,43,19.70
2015,06,08,07,44,19.70
2015,06,08,07,45,19.70
2015,06,08,07,46,19.80
2015,06,08,07,47,19.80
2015,06,08,07,48,19.80
2015,06,08,07,49,19.90
2015,06,08,07,50,20.00
2015,06,08,07,51,20.00
2015,06,08,07,52,20.10
2015,06,08,07,53,20.20
2015,06,08,07,54,20.30
2015,06,08,07,55,20.30
2015,06,08,07,56,20.30
2015,06,08,07,57,20.30
2015,06,08,07,58,20.30
2015,06,08,07,59,20.30
2015,06,08,08,00,20.40
2015,06,08,08,01,20.40
2015,06,08,08,02,20.40
2015,06,08,08,03,20.40
2015,06,08,08,04,20.40
2015,06,08,08,05,20.40
2015,06,08,08,06,20.40
2015,06,08,08,07,20.50
2015,06,08,08,08,20.60
2015,06,08,08,09,20.60
2015,06,08,08,10,20.70
2015,06,08,08,11,20.70
2015,06,08,08,12,20.80
2015,06,08,08,13,20.80
2015,06,08,08,14,20.90
2015,06,08,08,15,20.90
2015,06,08,08,16,21.00
2015,06,08,08,17,21.10
2015,06,08,08,18,21.10
2015,06,08,08,19,21.10
2015,06,08,08,20,21.10
2015,06,08,08,21,21.10
2015,06,08,08,22,21.20
2015,06,08,08,23,21.20
2015,06,08,08,24,21.20
2015,06,08,08,25,21.20
2015,06,08,08,26,21.30
2015,06,08,08,27,21.30
2015,06,08,08,28,21.30
2015,06,08,08,29,21.40
2015,06,08,08,30,21.40
2015,06,08,08,31,21.40
2015,06,08,08,32,21.50
2015,06,08,08,33,21.60
2015,06,08,08,34,21.60
2015,06,08,08,35,21.70
2015,06,08,08,36,21.70
2015,06,08,08,37,21.70
2015,06,08,08,38,21.70
2015,06,08,08,39,21.70
2015,06,08,08,40,21.70
2015,06,08,08,41,21.70
2015,06,08,08,42,21.70
2015,06,08,08,43,21.70
2015,06,08,08,44,21.70
2015,06,08,08,45,21.70
2015,06,08,08,46,21.70
2015,06,08,08,47,21.70
2015,06,08,08,48,21.70
2015,06,08,08,49,21.70
2015,06,08,08,50,21.80
2015,06,08,08,51,21.80
2015,06,08,08,52,21.80
2015,06,08,08,53,21.80
2015,06,08,08,54,21.80
2015,06,08,08,55,21.80
2015,06,08,08,56,21.80
2015,06,08,08,57,21.80
2015,06,08,08,58,21.90
2015,06,08,08,59,22.00
2015,06,08,09,00,22.00
2015,06,08,09,01,22.00
2015,06,08,09,02,22.10
2015,06,08,09,03,22.10
2015,06,08,09,04,22.10
2015,06,08,09,05,22.10
2015,06,08,09,06,22.10
2015,06,08,09,07,22.00
2015,06,08,09,08,22.00
2015,06,08,09,09,22.00
2015,06,08,09,10,21.90
2015,06,08,09,11,22.00
2015,06,08,09,12,22.00
2015,06,08,09,13,22.00
2015,06,08,09,14,22.10
2015,06,08,09,15,22.10
2015,06,08,09,16,22.10
2015,06,08,09,17,22.10
2015,06,08,09,18,22.00
2015,06,08,09,19,22.00
2015,06,08,09,20,21.90
2015,06,08,09,21,21.80
2015,06,08,09,22,21.80
2015,06,08,09,23,21.80
2015,06,08,09,24,21.80
2015,06,08,09,25,21.80
2015,06,08,09,26,21.80
2015,06,08,09,27,21.90
2015,06,08,09,28,21.90
2015,06,08,09,29,21.90
2015,06,08,09,30,22.00
2015,06,08,09,31,22.00
2015,06,08,09,32,22.00
2015,06,08,09,33,22.00
2015,06,08,09,34,22.00
2015,06,08,09,35,22.00
2015,06,08,09,36,22.00
2015,06,08,09,37,22.10
2015,06,08,09,38,22.10
2015,06,08,09,39,22.10
2015,06,08,09,40,22.10
2015,06,08,09,41,22.20
2015,06,08,09,42,22.20
2015,06,08,09,43,22.30
2015,06,08,09,44,22.30
2015,06,08,09,45,22.30
2015,06,08,09,46,22.30
2015,06,08,09,47,22.30
2015,06,08,09,48,22.30
2015,06,08,09,49,22.30
2015,06,08,09,50,22.30
2015,06,08,09,51,22.40
2015,06,08,09,52,22.40
2015,06,08,09,53,22.50
2015,06,08,09,54,22.50
2015,06,08,09,55,22.50
2015,06,08,09,56,22.40
2015,06,08,09,57,22.50
2015,06,08,09,58,22.50
2015,06,08,09,59,22.60
2015,06,08,10,00,22.60
2015,06,08,10,01,22.60
2015,06,08,10,02,22.60
2015,06,08,10,03,22.60
2015,06,08,10,04,22.60
2015,06,08,10,05,22.50
2015,06,08,10,06,22.40
2015,06,08,10,07,22.40
2015,06,08,10,08,22.30
2015,06,08,10,09,22.30
2015,06,08,10,10,22.20
2015,06,08,10,11,22.20
2015,06,08,10,12,22.20
2015,06,08,10,13,22.20
2015,06,08,10,14,22.30
2015,06,08,10,15,22.30
2015,06,08,10,16,22.40
2015,06,08,10,17,22.50
2015,06,08,10,18,22.60
2015,06,08,10,19,22.70
2015,06,08,10,20,22.80
2015,06,08,10,21,22.80
2015,06,08,10,22,22.70
2015,06,08,10,23,22.60
2015,06,08,10,24,22.60
2015,06,08,10,25,22.50
2015,06,08,10,26,22.40
2015,06,08,10,27,22.40
2015,06,08,10,28,22.40
2015,06,08,10,29,22.40
2015,06,08,10,30,22.40
2015,06,08,10,31,22.50
2015,06,08,10,32,22.50
2015,06,08,10,33,22.50
2015,06,08,10,34,22.50
2015,06,08,10,35,22.60
2015,06,08,10,36,22.60
2015,06,08,10,37,22.60
2015,06,08,10,38,22.60
2015,06,08,10,39,22.60
2015,06,08,10,40,22.60
2015,06,08,10,41,22.60
2015,06,08,10,42,22.60
2015,06,08,10,43,22.60
2015,06,08,10,44,22.70
2015,06,08,10,45,22.80
2015,06,08,10,46,22.80
2015,06,08,10,47,22.70
2015,06,08,10,48,22.60
2015,06,08,10,49,22.60
2015,06,08,10,50,22.50
2015,06,08,10,51,22.40
2015,06,08,10,52,22.40
2015,06,08,10,53,22.50
2015,06,08,10,54,22.40
2015,06,08,10,55,22.50
2015,06,08,10,56,22.50
2015,06,08,10,57,22.60
2015,06,08,10,58,22.60
2015,06,08,10,59,22.70
2015,06,08,11,00,22.70
2015,06,08,11,01,22.80
2015,06,08,11,02,22.80
2015,06,08,11,03,22.70
2015,06,08,11,04,22.70
2015,06,08,11,05,22.70
2015,06,08,11,06,22.80
2015,06,08,11,07,22.80
2015,06,08,11,08,22.80
2015,06,08,11,09,22.80
2015,06,08,11,10,22.80
2015,06,08,11,11,22.80
2015,06,08,11,12,22.80
2015,06,08,11,13,22.80
2015,06,08,11,14,22.70
2015,06,08,11,15,22.70
2015,06,08,11,16,22.70
2015,06,08,11,17,22.70
2015,06,08,11,18,22.70
2015,06,08,11,19,22.70
2015,06,08,11,20,22.80
2015,06,08,11,21,22.90
2015,06,08,11,22,23.10
2015,06,08,11,23,23.10
2015,06,08,11,24,23.10
2015,06,08,11,25,23.00
2015,06,08,11,26,22.90
2015,06,08,11,27,22.80
2015,06,08,11,28,22.80
2015,06,08,11,29,22.80
2015,06,08,11,30,22.80
2015,06,08,11,31,22.70
2015,06,08,11,32,22.70
2015,06,08,11,33,22.70
2015,06,08,11,34,22.60
2015,06,08,11,35,22.60
2015,06,08,11,36,22.60
2015,06,08,11,37,22.60
2015,06,08,11,38,22.60
2015,06,08,11,39,22.60
2015,06,08,11,40,22.70
2015,06,08,11,41,22.70
2015,06,08,11,42,22.70
2015,06,08,11,43,22.80
2015,06,08,11,44,22.80
2015,06,08,11,45,22.90
2015,06,08,11,46,22.90
2015,06,08,11,47,22.90
2015,06,08,11,48,22.90
2015,06,08,11,49,23.00
2015,06,08,11,50,23.00
2015,06,08,11,51,22.90
2015,06,08,11,52,22.90
2015,06,08,11,53,22.80
2015,06,08,11,54,22.80
2015,06,08,11,55,22.80
2015,06,08,11,56,22.80
2015,06,08,11,57,22.80
2015,06,08,11,58,22.90
2015,06,08,11,59,23.00
2015,06,08,12,00,23.00
2015,06,08,12,01,23.10
2015,06,08,12,02,23.20
2015,06,08,12,03,23.30
2015,06,08,12,04,23.40
2015,06,08,12,05,23.50
2015,06,08,12,06,23.60
2015,06,08,12,07,23.60
2015,06,08,12,08,23.50
2015,06,08,12,09,23.40
2015,06,08,12,10,23.40
2015,06,08,12,11,23.30
2015,06,08,12,12,23.30
2015,06,08,12,13,23.20
2015,06,08,12,14,23.20
2015,06,08,12,15,23.20
2015,06,08,12,16,23.20
2015,06,08,12,17,23.10
2015,06,08,12,18,23.10
2015,06,08,12,19,23.10
2015,06,08,12,20,23.20
2015,06,08,12,21,23.20
2015,06,08,12,22,23.10
2015,06,08,12,23,23.10
2015,06,08,12,24,23.20
2015,06,08,12,25,23.20
2015,06,08,12,26,23.20
2015,06,08,12,27,23.30
2015,06,08,12,28,23.30
2015,06,08,12,29,23.30
2015,06,08,12,30,23.20
2015,06,08,12,31,23.20
2015,06,08,12,32,23.30
2015,06,08,12,33,23.30
2015,06,08,12,34,23.40
2015,06,08,12,35,23.40
2015,06,08,12,36,23.40
2015,06,08,12,37,23.40
2015,06,08,12,38,23.40
2015,06,08,12,39,23.30
2015,06,08,12,40,23.20
2015,06,08,12,41,23.10
2015,06,08,12,42,23.00
2015,06,08,12,43,23.00
2015,06,08,12,44,23.00
2015,06,08,12,45,23.00
2015,06,08,12,46,23.00
2015,06,08,12,47,23.00
2015,06,08,12,48,23.00
2015,06,08,12,49,23.00
2015,06,08,12,50,23.00
2015,06,08,12,51,23.00
2015,06,08,12,52,23.10
2015,06,08,12,53,23.20
2015,06,08,12,54,23.30
2015,06,08,12,55,23.50
2015,06,08,12,56,23.60
2015,06,08,12,57,23.70
2015,06,08,12,58,23.70
2015,06,08,12,59,23.70
2015,06,08,13,00,23.70
2015,06,08,13,01,23.70
2015,06,08,13,02,23.70
2015,06,08,13,03,23.60
2015,06,08,13,04,23.70
2015,06,08,13,05,23.70
2015,06,08,13,06,23.70
2015,06,08,13,07,23.70
2015,06,08,13,08,23.70
2015,06,08,13,09,23.70
2015,06,08,13,10,23.80
2015,06,08,13,11,23.80
2015,06,08,13,12,23.80
2015,06,08,13,13,23.90
2015,06,08,13,14,23.90
2015,06,08,13,15,24.00
2015,06,08,13,16,24.10
2015,06,08,13,17,24.20
2015,06,08,13,18,24.30
2015,06,08,13,19,24.20
2015,06,08,13,20,24.20
2015,06,08,13,21,24.20
2015,06,08,13,22,24.30
2015,06,08,13,23,24.20
2015,06,08,13,24,24.10
2015,06,08,13,25,24.00
2015,06,08,13,26,23.90
2015,06,08,13,27,23.80
2015,06,08,13,28,23.80
2015,06,08,13,29,23.80
2015,06,08,13,30,23.80
2015,06,08,13,31,23.70
2015,06,08,13,32,23.70
2015,06,08,13,33,23.60
2015,06,08,13,34,23.60
2015,06,08,13,35,23.70
2015,06,08,13,36,23.90
2015,06,08,13,37,24.00
2015,06,08,13,38,24.10
2015,06,08,13,39,24.20
2015,06,08,13,40,24.40
2015,06,08,13,41,24.40
2015,06,08,13,42,24.50
2015,06,08,13,43,24.60
2015,06,08,13,44,24.70
2015,06,08,13,45,24.80
2015,06,08,13,46,24.90
2015,06,08,13,47,25.00
2015,06,08,13,48,25.00
2015,06,08,13,49,25.10
2015,06,08,13,50,25.10
2015,06,08,13,51,25.10
2015,06,08,13,52,25.10
2015,06,08,13,53,25.20
2015,06,08,13,54,25.20
2015,06,08,13,55,25.20
2015,06,08,13,56,25.20
2015,06,08,13,57,25.20
2015,06,08,13,58,25.20
2015,06,08,13,59,25.20
2015,06,08,14,00,25.10
2015,06,08,14,01,25.00
2015,06,08,14,02,25.00
2015,06,08,14,03,25.00
2015,06,08,14,04,25.00
2015,06,08,14,05,24.90
2015,06,08,14,06,24.90
2015,06,08,14,07,24.90
2015,06,08,14,08,24.90
2015,06,08,14,09,24.90
2015,06,08,14,10,24.90
2015,06,08,14,11,24.90
2015,06,08,14,12,24.90
2015,06,08,14,13,24.90
2015,06,08,14,14,24.90
2015,06,08,14,15,24.90
2015,06,08,14,16,24.90
2015,06,08,14,17,25.00
2015,06,08,14,18,25.00
2015,06,08,14,19,25.10
2015,06,08,14,20,25.10
2015,06,08,14,21,25.00
2015,06,08,14,22,24.90
2015,06,08,14,23,24.90
2015,06,08,14,24,24.90
2015,06,08,14,25,25.00
2015,06,08,14,26,25.10
2015,06,08,14,27,25.20
2015,06,08,14,28,25.20
2015,06,08,14,29,25.20
2015,06,08,14,30,25.20
2015,06,08,14,31,25.20
2015,06,08,14,32,25.20
2015,06,08,14,33,25.30
2015,06,08,14,34,25.30
2015,06,08,14,35,25.30
2015,06,08,14,36,25.30
2015,06,08,14,37,25.20
2015,06,08,14,38,25.20
2015,06,08,14,39,25.10
2015,06,08,14,40,25.10
2015,06,08,14,41,25.10
2015,06,08,14,42,25.10
2015,06,08,14,43,25.20
2015,06,08,14,44,25.20
2015,06,08,14,45,25.20
2015,06,08,14,46,25.20
2015,06,08,14,47,25.20
2015,06,08,14,48,25.20
2015,06,08,14,49,25.20
2015,06,08,14,50,25.20
2015,06,08,14,51,25.30
2015,06,08,14,52,25.30
2015,06,08,14,53,25.30
2015,06,08,14,54,25.40
2015,06,08,14,55,25.40
2015,06,08,14,56,25.40
2015,06,08,14,57,25.40
2015,06,08,14,58,25.30
2015,06,08,14,59,25.30
2015,06,08,15,00,25.30
2015,06,08,15,01,25.30
2015,06,08,15,02,25.30
2015,06,08,15,03,25.30
2015,06,08,15,04,25.30
2015,06,08,15,05,25.40
2015,06,08,15,06,25.40
2015,06,08,15,07,25.40
2015,06,08,15,08,25.40
2015,06,08,15,09,25.50
2015,06,08,15,10,25.50
2015,06,08,15,11,25.50
2015,06,08,15,12,25.60
2015,06,08,15,13,25.60
2015,06,08,15,14,25.60
2015,06,08,15,15,25.50
2015,06,08,15,16,25.50
2015,06,08,15,17,25.40
2015,06,08,15,18,25.40
2015,06,08,15,19,25.40
2015,06,08,15,20,25.40
2015,06,08,15,21,25.40
2015,06,08,15,22,25.40
2015,06,08,15,23,25.40
2015,06,08,15,24,25.40
2015,06,08,15,25,25.40
2015,06,08,15,26,25.40
2015,06,08,15,27,25.40
2015,06,08,15,28,25.40
2015,06,08,15,29,25.40
2015,06,08,15,30,25.30
2015,06,08,15,31,25.30
2015,06,08,15,32,25.30
2015,06,08,15,33,25.30
2015,06,08,15,34,25.40
2015,06,08,15,35,25.40
2015,06,08,15,36,25.40
2015,06,08,15,37,25.40
2015,06,08,15,38,25.30
2015,06,08,15,39,25.30
2015,06,08,15,40,25.30
2015,06,08,15,41,25.30
2015,06,08,15,42,25.30
2015,06,08,15,43,25.30
2015,06,08,15,44,25.30
2015,06,08,15,45,25.20
2015,06,08,15,46,25.10
2015,06,08,15,47,25.00
2015,06,08,15,48,25.00
2015,06,08,15,49,24.90
2015,06,08,15,50,24.90
2015,06,08,15,51,24.90
2015,06,08,15,52,25.00
2015,06,08,15,53,25.00
2015,06,08,15,54,25.00
2015,06,08,15,55,25.00
2015,06,08,15,56,25.00
2015,06,08,15,57,24.90
2015,06,08,15,58,24.90
2015,06,08,15,59,24.80
2015,06,08,16,00,24.80
2015,06,08,16,01,24.70
2015,06,08,16,02,24.70
2015,06,08,16,03,24.60
2015,06,08,16,04,24.50
2015,06,08,16,05,24.50
2015,06,08,16,06,24.50
2015,06,08,16,07,24.40
2015,06,08,16,08,24.40
2015,06,08,16,09,24.40
2015,06,08,16,10,24.30
2015,06,08,16,11,24.20
2015,06,08,16,12,24.10
2015,06,08,16,13,24.00
2015,06,08,16,14,24.00
2015,06,08,16,15,23.90
2015,06,08,16,16,23.90
2015,06,08,16,17,23.80
2015,06,08,16,18,23.80
2015,06,08,16,19,23.80
2015,06,08,16,20,23.70
2015,06,08,16,21,23.70
2015,06,08,16,22,23.60
2015,06,08,16,23,23.60
2015,06,08,16,24,23.50
2015,06,08,16,25,23.40
2015,06,08,16,26,23.40
2015,06,08,16,27,23.30
2015,06,08,16,28,23.30
2015,06,08,16,29,23.20
2015,06,08,16,30,23.10
2015,06,08,16,31,23.00
2015,06,08,16,32,23.00
2015,06,08,16,33,23.00
2015,06,08,16,34,23.00
2015,06,08,16,35,23.00
2015,06,08,16,36,23.00
2015,06,08,16,37,23.10
2015,06,08,16,38,23.10
2015,06,08,16,39,23.10
2015,06,08,16,40,23.00
2015,06,08,16,41,23.00
2015,06,08,16,42,23.00
2015,06,08,16,43,23.00
2015,06,08,16,44,22.90
2015,06,08,16,45,22.80
2015,06,08,16,46,22.80
2015,06,08,16,47,22.80
2015,06,08,16,48,22.80
2015,06,08,16,49,22.80
2015,06,08,16,50,22.70
2015,06,08,16,51,22.70
2015,06,08,16,52,22.60
2015,06,08,16,53,22.60
2015,06,08,16,54,22.60
2015,06,08,16,55,22.60
2015,06,08,16,56,22.60
2015,06,08,16,57,22.60
2015,06,08,16,58,22.50
2015,06,08,16,59,22.50
2015,06,08,17,00,22.50
2015,06,08,17,01,22.40
2015,06,08,17,02,22.40
2015,06,08,17,03,22.40
2015,06,08,17,04,22.40
2015,06,08,17,05,22.50
2015,06,08,17,06,22.40
2015,06,08,17,07,22.40
2015,06,08,17,08,22.30
2015,06,08,17,09,22.30
2015,06,08,17,10,22.40
2015,06,08,17,11,22.40
2015,06,08,17,12,22.50
2015,06,08,17,13,22.60
2015,06,08,17,14,22.70
2015,06,08,17,15,22.70
2015,06,08,17,16,22.70
2015,06,08,17,17,22.70
2015,06,08,17,18,22.70
2015,06,08,17,19,22.70
2015,06,08,17,20,22.60
2015,06,08,17,21,22.60